This demonstration page uses our WeatherBlox Daily Observations layout. Learn more.

Left ArrowRight Arrow

44.89941, -97.11507

Hourly Observations for June 25, 2022

Temp ( °F °C ) Dew Point ( °F °C ) Humidity (%) Winds ( mph kmh ) Pressure ( in mb ) Visibility ( mi km ) Precip ( " mm )
12:00 am 00:00 Cloudy with Thunderstorms 69 20.6 65 18.3 87 87 WNW 18 30 29.80 1009 8 13 0.02 0.51
12:34 am 00:34 Mostly Cloudy 68 20 65 18.3 90 90 N 9 15 29.79 1009 10 16 0.09 2.29
12:53 am 00:53 Mostly Cloudy with Light Rain 68 20 66 18.9 93 93 NNW 8 13 29.81 1009 10 16 0.10 2.54
1:53 am 01:53 Mostly Clear 67 19.4 66 18.9 97 97 Calm 29.81 1010 10 16 0.00 0.00
2:53 am 02:53 Mostly Cloudy 67 19.4 65 18.3 93 93 N 8 13 29.76 1008 10 16 0.01 0.25
3:53 am 03:53 Mostly Cloudy 67 19.4 65 18.3 93 93 Calm 29.80 1009 10 16 0.00 0.00
4:08 am 04:08 Cloudy 67 19.4 65 18.3 93 93 NNW 3 6 29.81 1009 10 16 0.00 0.00
4:19 am 04:19 Cloudy 66 18.9 65 18.3 96 96 SSE 6 9 29.81 1010 10 16 0.00 0.00
4:53 am 04:53 Mostly Clear 67 19.4 65 18.3 93 93 SSE 6 9 29.84 1011 10 16 0.00 0.00
5:53 am 05:53 Mostly Cloudy with Light Rain 66 18.9 65 18.3 96 96 Calm 29.85 1011 10 16 0.00 0.00
6:51 am 06:51 Cloudy 66 19 64 18 94 94 NW 12 19 29.87 1012 10 16 0.00 0.00
6:53 am 06:53 Cloudy 66 18.9 64 17.8 93 93 NW 10 17 29.88 1012 10 16 0.00 0.00
7:24 am 07:24 Cloudy 66 18.9 64 17.8 93 93 WNW 16 26 29.90 1013 10 16 0.00 0.00
7:36 am 07:36 Cloudy with Light Rain 66 18.9 64 17.8 93 93 NW 14 22 29.90 1013 9 14 0.00 0.00
7:43 am 07:43 Cloudy with Light Rain 66 18.9 64 17.8 93 93 NW 15 24 29.90 1013 9 14 0.00 0.00
7:53 am 07:53 Cloudy 66 18.9 64 17.8 93 93 NW 18 30 29.92 1013 10 16 0.00 0.00
8:10 am 08:10 Cloudy 65 18.3 62 16.7 90 90 NW 18 30 29.92 1013 10 16 0.00 0.00
8:53 am 08:53 Cloudy 64 17.8 61 16.1 90 90 NW 18 30 29.95 1014 10 16 0.00 0.00
9:30 am 09:30 Cloudy 66 18.9 60 15.6 81 81 NW 18 30 29.95 1014 10 16 0.00 0.00
9:53 am 09:53 Cloudy 68 20 60 15.6 76 76 NW 20 31 29.97 1015 10 16 0.00 0.00
10:53 am 10:53 Mostly Cloudy 70 21.1 58 14.4 66 66 NW 15 24 29.98 1015 10 16 0.00 0.00
11:53 am 11:53 Cloudy 69 20.6 54 12.2 59 59 NW 20 31 30.03 1017 10 16 0.00 0.00
12:53 pm 12:53 Sunny 73 22.8 54 12.2 51 51 WNW 18 30 30.03 1017 10 16 0.00 0.00
1:53 pm 13:53 Sunny 74 23.3 51 10.6 45 45 WNW 20 31 30.04 1017 10 16 0.00 0.00
2:53 pm 14:53 Sunny 73 22.8 49 9.4 43 43 WNW 20 31 30.03 1017 10 16 0.00 0.00
3:53 pm 15:53 Sunny 72 22.2 49 9.4 44 44 WNW 22 35 30.04 1017 10 16 0.00 0.00
4:53 pm 16:53 Mostly Sunny 72 22.2 49 9.4 44 44 WNW 23 37 30.05 1018 10 16 0.00 0.00
5:53 pm 17:53 Sunny 71 21.7 48 8.9 44 44 WNW 22 35 30.06 1018 10 16 0.00 0.00
6:53 pm 18:53 Mostly Sunny 69 20.6 48 8.9 47 47 WNW 20 31 30.07 1018 10 16 0.00 0.00
7:53 pm 19:53 Mostly Sunny 68 20 46 7.8 45 45 WNW 16 26 30.09 1019 10 16 0.00 0.00
8:53 pm 20:53 Sunny 66 18.9 46 7.8 49 49 WNW 14 22 30.09 1019 10 16 0.00 0.00
9:53 pm 21:53 Clear 64 17.8 46 7.8 52 52 W 12 19 30.09 1019 10 16 0.00 0.00
10:53 pm 22:53 Clear 63 17.2 48 8.9 58 58 WNW 13 20 30.11 1020 10 16 0.00 0.00
11:53 pm 23:53 Clear 63 17.2 48 8.9 58 58 WNW 17 28 30.13 1020 10 16 0.00 0.00

Powered by AerisWeather